Franklin, PA

11:41 AM EST on December 14, 2019 (GMT -0500)
Venango Regional

Weather History for KFKL - October, 2019

Change the Weather History Date:

Thursday, October 24, 2019

  Actual Average Record
Temperature  
Mean Temperature 52 °F -  
Max Temperature 64 °F 59 °F 79 °F (1975)
Min Temperature 39 °F 36 °F 20 °F (1969)
Degree Days  
Heating Degree Days 14    
Growing Degree Days 2 (Base 50)    
Moisture  
Dew Point 37 °F    
Average Humidity 62    
Maximum Humidity 86    
Minimum Humidity 43    
Precipitation  
Precipitation 0.00 in - - ()
Sea Level Pressure  
Sea Level Pressure 30.24 in    
Wind  
Wind Speed 8 mph (SW)    
Max Wind Speed 13 mph    
Max Gust Speed 18 mph    
Visibility 10 miles    
Events      
Averages and records for this station are not official NWS values.
T = Trace of Precipitation, MM = Missing Value Source: NWS Daily Summary

Daily Weather History Graph

Daily Weather History Graph

Search for Another Location

Airport or City:

Astronomy

Oct. 24, 2019 Rise Set
Actual Time 7:41 AM EDT 6:25 PM EDT
Civil Twilight 7:12 AM EDT 6:53 PM EDT
Nautical Twilight 6:40 AM EDT 7:25 PM EDT
Astronomical Twilight 6:08 AM EDT 7:57 PM EDT
Moon 3:05 AM EDT (10/24) 4:55 PM EDT (10/24)
Length of Visible Light 11h 40m
Length of Day
10h 44m
Waning Crescent, 17% of the Moon is Illuminated
Oct 24
Waning Crescent
Oct 27
New
Nov 4
First Quarter
Nov 12
Full
Nov 19
Last Quarter

Hourly Weather History & Observations

Time (EDT) Temp. Windchill Dew Point Humidity Pressure Visibility Wind Dir Wind Speed Gust Speed Precip Events Conditions
12:56 AM 46.0 °F 41.4 °F 30.9 °F 56% 30.19 in 10.0 mi SW 9.2 mph - N/A   Clear
1:56 AM 43.0 °F 38.2 °F 32.0 °F 65% 30.19 in 10.0 mi SSW 8.1 mph - N/A   Clear
2:56 AM 41.0 °F 36.4 °F 32.0 °F 70% 30.21 in 10.0 mi SSW 6.9 mph - N/A   Clear
3:56 AM 43.0 °F - 32.0 °F 65% - 10.0 mi North - - N/A   Scattered Clouds
4:56 AM 41.0 °F 35.2 °F 32.0 °F 70% 30.21 in 10.0 mi South 9.2 mph - N/A   Clear
5:56 AM 42.1 °F 36.1 °F 32.0 °F 67% 30.21 in 10.0 mi South 10.4 mph - N/A   Clear
6:56 AM 39.9 °F 34.5 °F 32.0 °F 73% 30.22 in 10.0 mi South 8.1 mph - N/A   Partly Cloudy
7:56 AM 42.1 °F 37.1 °F 32.0 °F 67% 30.23 in 10.0 mi South 8.1 mph - N/A   Partly Cloudy
8:56 AM 46.0 °F 41.0 °F 33.1 °F 61% 30.25 in 10.0 mi South 10.4 mph - N/A   Clear
9:56 AM 51.1 °F - 34.0 °F 52% 30.25 in 10.0 mi SSW 10.4 mph - N/A   Partly Cloudy
10:56 AM 57.0 °F - 36.0 °F 45% 30.25 in 10.0 mi SW 8.1 mph 18.4 mph N/A   Mostly Cloudy
11:56 AM 57.0 °F - 37.0 °F 47% 30.25 in - Variable 6.9 mph - N/A   Overcast
12:56 PM 59.0 °F - 37.9 °F 46% 30.23 in 10.0 mi WSW 8.1 mph 18.4 mph N/A   Overcast
1:56 PM 61.0 °F - 39.0 °F 44% 30.23 in 10.0 mi SW 8.1 mph - N/A   Overcast
2:56 PM 63.0 °F - 39.9 °F 43% 30.22 in 10.0 mi SW 6.9 mph - N/A   Clear
3:56 PM 64.0 °F - 41.0 °F 43% 30.22 in 10.0 mi WNW 12.7 mph - N/A   Partly Cloudy
4:56 PM 62.1 °F - 41.0 °F 46% 30.24 in 10.0 mi West 6.9 mph - N/A   Mostly Cloudy
5:56 PM 57.9 °F - 41.0 °F 53% 30.25 in 10.0 mi NW 3.5 mph - N/A   Clear
6:56 PM 55.9 °F - 41.0 °F 57% 30.26 in 10.0 mi Calm Calm - N/A   Clear
7:56 PM 52.0 °F - 44.1 °F 74% 30.28 in 10.0 mi North 5.8 mph - N/A   Clear
8:56 PM 50.0 °F - 44.1 °F 80% 30.29 in 10.0 mi Variable 5.8 mph - N/A   Scattered Clouds
9:56 PM 48.0 °F - 43.0 °F 83% 30.30 in 10.0 mi NE 6.9 mph - N/A   Clear
10:56 PM 46.9 °F - 43.0 °F 86% 30.30 in 10.0 mi NE 5.8 mph - N/A   Clear
11:56 PM 46.9 °F - 43.0 °F 86% 30.31 in 10.0 mi NNE 5.8 mph - N/A   Overcast